FW5682 Weather Reports


Display with metric or nautical units.
time (UTC)temp
F
wind
direction
speed
MPH
gust
MPH
rain 1hr
in
rain 24hr
in
rain mn
in
humidity
%
barometer
mb
20260903221905 58 295 2.0 5.0 0.03 0.11 0.12 92 1007.7
20260903221405 58 295 4.0 5.0 0.03 0.11 0.12 92 1007.8
20260903220903 58 296 2.0 6.0 0.03 0.11 0.12 91 1008.0
20260903220405 58 295 4.0 9.0 0.02 0.11 0.11 91 1008.0
20260903220139 58 302 4.0 10.0 0.02 0.09 0.11 91 1008.1
20260903215404 58 314 5.0 10.0 0.02 0.09 0.11 90 1008.2
20260903214903 58 303 4.0 10.0 0.02 0.09 0.10 90 1008.2
20260903214634 59 299 4.0 10.0 0.02 0.09 0.10 90 1008.2
20260903214134 60 321 5.0 15.0 0.02 0.09 0.10 89 1008.4
20260903213404 60 305 6.0 15.0 0.01 0.09 0.09 90 1008.4
20260903213135 61 282 6.0 11.0 0.00 0.09 0.09 91 1008.4
20260903212404 61 285 6.0 11.0 0.00 0.09 0.09 91 1008.5
20260903211900 61 274 7.0 11.0 0.00 0.09 0.09 91 1008.4
20260903211359 61 230 4.0 11.0 0.00 0.09 0.09 91 1008.5
20260903210859 61 210 3.0 7.0 0.00 0.09 0.09 91 1008.4
20260903210400 61 227 3.0 9.0 0.00 0.09 0.09 91 1008.5
20260903205856 61 228 5.0 9.0 0.00 0.09 0.09 91 1008.6
20260903205357 61 228 4.0 9.0 0.00 0.09 0.09 91 1008.5
20260903204857 61 227 4.0 13.0 0.00 0.09 0.09 91 1008.6
20260903204620 61 231 4.0 13.0 0.00 0.09 0.09 91 1008.5
20260903203854 61 234 5.0 9.0 0.00 0.09 0.09 91 1008.6
20260903203355 61 234 5.0 9.0 0.00 0.09 0.09 91 1008.6
20260903202856 61 233 6.0 9.0 0.00 0.09 0.09 91 1008.7
20260903202355 61 220 5.0 10.0 0.00 0.09 0.09 91 1008.7
20260903201856 61 255 5.0 11.0 0.01 0.09 0.09 91 1008.9
20260903201352 61 264 6.0 11.0 0.01 0.09 0.09 91 1008.9
20260903200851 61 228 6.0 10.0 0.01 0.09 0.09 91 1008.9
20260903200352 62 233 5.0 9.0 0.01 0.09 0.09 91 1008.8
20260903195851 62 259 5.0 10.0 0.01 0.08 0.09 91 1008.8
20260903195350 62 227 6.0 13.0 0.02 0.08 0.09 90 1008.8
20260903194858 62 238 6.0 13.0 0.02 0.08 0.09 90 1008.6
20260903194356 62 238 8.0 15.0 0.02 0.08 0.09 91 1008.8
20260903193853 62 221 5.0 15.0 0.02 0.08 0.09 91 1008.9
20260903193351 62 212 4.0 10.0 0.02 0.08 0.09 91 1008.8
20260903192855 62 241 4.0 12.0 0.02 0.08 0.09 91 1008.8
20260903192614 62 207 5.0 12.0 0.02 0.09 0.09 91 1009.0
20260903191844 62 214 3.0 9.0 0.01 0.09 0.08 91 1009.1
20260903191343 63 216 5.0 9.0 0.01 0.09 0.08 90 1009.0
20260903190844 63 220 3.0 7.0 0.01 0.09 0.08 90 1009.1
20260903190342 63 220 4.0 7.0 0.01 0.09 0.08 90 1009.1
20260903185841 63 248 3.0 7.0 0.01 0.08 0.08 90 1009.3
20260903185341 63 241 4.0 9.0 0.00 0.08 0.07 89 1009.5
20260903184841 63 248 4.0 10.0 0.00 0.08 0.07 89 1009.5
20260903184340 63 244 5.0 10.0 0.00 0.08 0.07 89 1009.6
20260903183842 63 264 6.0 13.0 0.00 0.08 0.07 88 1009.6
20260903183339 63 245 8.0 13.0 0.00 0.08 0.07 88 1009.5
20260903182839 63 237 8.0 13.0 0.00 0.08 0.07 88 1009.6
20260903182341 63 264 7.0 13.0 0.00 0.09 0.07 88 1009.6
20260903181839 64 293 6.0 11.0 0.00 0.09 0.07 88 1009.7
20260903181341 64 254 7.0 11.0 0.00 0.09 0.07 88 1009.8
20260903180839 64 237 6.0 11.0 0.00 0.09 0.07 88 1009.9
20260903175840 64 237 4.0 10.0 0.00 0.10 0.07 88 1010.0
20260903175339 64 244 5.0 11.0 0.00 0.10 0.07 87 1010.1
20260903174839 64 224 7.0 12.0 0.00 0.10 0.07 87 1010.2
20260903174338 65 254 6.0 12.0 0.00 0.11 0.07 86 1010.2
20260903174107 65 223 6.0 12.0 0.00 0.11 0.07 86 1010.2
20260903173339 65 209 6.0 12.0 0.00 0.12 0.07 86 1010.2
20260903172838 65 289 8.0 12.0 0.00 0.12 0.07 85 1010.2
20260903172338 65 255 8.0 12.0 0.00 0.13 0.07 85 1010.0
20260903172107 65 266 7.0 12.0 0.00 0.13 0.07 85 1009.9
20260903171338 65 247 6.0 12.0 0.00 0.13 0.07 85 1009.8
20260903170838 65 238 6.0 12.0 0.00 0.13 0.07 85 1009.9
20260903170339 65 217 6.0 12.0 0.00 0.13 0.07 85 1009.8
20260903165838 65 264 5.0 21.0 0.00 0.13 0.07 84 1009.9
20260903165339 65 255 6.0 21.0 0.00 0.13 0.07 84 1010.0
20260903164837 65 265 9.0 17.0 0.00 0.13 0.07 84 1010.1
20260903164337 65 235 9.0 17.0 0.00 0.13 0.07 83 1010.1
20260903163838 65 213 8.0 15.0 0.00 0.13 0.07 82 1010.3
20260903163340 65 252 10.0 17.0 0.00 0.13 0.07 82 1010.3
20260903162837 66 247 8.0 17.0 0.00 0.13 0.07 81 1010.4
20260903162338 66 241 8.0 20.0 0.00 0.13 0.07 81 1010.4
20260903161838 66 258 11.0 20.0 0.00 0.13 0.07 80 1010.6
20260903161336 67 343 8.0 13.0 0.00 0.13 0.07 79 1010.6
20260903160837 67 243 7.0 12.0 0.00 0.13 0.07 79 1010.7
20260903160336 67 282 7.0 14.0 0.00 0.13 0.07 78 1010.8
20260903155841 67 250 5.0 18.0 0.00 0.13 0.07 78 1010.8
20260903155337 67 275 12.0 18.0 0.00 0.13 0.07 78 1010.6
20260903154836 67 281 6.0 17.0 0.00 0.13 0.07 78 1010.7
20260903154336 67 281 7.0 16.0 0.00 0.13 0.07 79 1010.9
20260903153835 67 250 10.0 16.0 0.00 0.13 0.07 79 1010.9
20260903153336 67 240 8.0 15.0 0.00 0.13 0.07 79 1010.8
20260903153107 67 293 7.0 15.0 0.00 0.13 0.07 79 1010.9
20260903152335 67 285 6.0 15.0 0.00 0.13 0.07 79 1010.8
20260903151834 67 282 7.0 15.0 0.00 0.13 0.07 78 1011.0
20260903151336 67 299 8.0 19.0 0.00 0.13 0.07 78 1011.2
20260903151057 68 299 9.0 19.0 0.00 0.13 0.07 77 1011.2
20260903150335 68 255 9.0 17.0 0.00 0.13 0.07 76 1011.0
20260903145834 69 261 8.0 14.0 0.00 0.13 0.07 75 1010.8
20260903145558 69 262 7.0 19.0 0.00 0.13 0.07 76 1010.9
20260903145057 69 240 11.0 21.0 0.00 0.13 0.07 75 1011.0
20260903144333 69 268 11.0 21.0 0.00 0.14 0.07 76 1010.7
20260903143835 69 269 15.0 21.0 0.00 0.14 0.07 75 1010.6
20260903143336 69 227 10.0 19.0 0.00 0.14 0.07 76 1010.5
20260903142834 69 245 9.0 19.0 0.00 0.15 0.07 76 1010.6
20260903142334 69 259 10.0 19.0 0.00 0.15 0.07 77 1010.7
20260903141834 68 252 10.0 22.0 0.00 0.15 0.07 77 1010.5
20260903141556 68 278 11.0 22.0 0.00 0.15 0.07 77 1010.6
20260903141054 68 240 11.0 18.0 0.00 0.15 0.07 77 1010.8
20260903140334 68 258 12.0 19.0 0.00 0.15 0.07 77 1010.8
20260903135833 68 261 8.0 19.0 0.00 0.15 0.07 77 1010.5
20260903135333 68 226 11.0 19.0 0.00 0.15 0.07 77 1010.4
20260903135057 68 266 13.0 19.0 0.00 0.15 0.07 77 1010.6
20260903134336 68 295 12.0 17.0 0.00 0.15 0.07 77 1010.7
20260903133836 68 223 9.0 17.0 0.00 0.15 0.07 76 1010.7
20260903133333 68 261 11.0 17.0 0.00 0.15 0.07 77 1010.9
20260903133101 67 271 9.0 22.0 0.00 0.15 0.07 77 1010.9
20260903132551 68 278 12.0 22.0 0.00 0.15 0.07 76 1011.1
20260903131832 68 235 11.0 18.0 0.00 0.15 0.07 76 1011.1
20260903131333 67 234 8.0 18.0 0.00 0.15 0.07 78 1010.9
20260903130830 67 245 10.0 19.0 0.00 0.15 0.07 76 1010.9
20260903130331 67 243 11.0 19.0 0.00 0.15 0.07 76 1011.0
20260903125831 67 206 7.0 18.0 0.00 0.15 0.07 77 1010.9
20260903125329 67 248 10.0 18.0 0.00 0.15 0.07 76 1011.1
20260903124830 67 279 7.0 16.0 0.00 0.15 0.07 77 1011.1
20260903124329 67 268 7.0 15.0 0.00 0.15 0.07 77 1011.2
20260903123826 67 244 8.0 16.0 0.00 0.15 0.07 77 1011.3
20260903123553 67 278 9.0 16.0 0.00 0.15 0.07 76 1011.4
20260903122827 67 259 7.0 15.0 0.00 0.15 0.07 75 1011.6
20260903122324 67 261 6.0 19.0 0.00 0.15 0.07 76 1011.3
20260903121824 67 302 8.0 19.0 0.00 0.15 0.07 78 1011.5
20260903121324 66 306 8.0 20.0 0.00 0.15 0.07 76 1011.6
20260903120822 66 286 10.0 20.0 0.00 0.15 0.07 75 1011.5
20260903120322 66 278 10.0 22.0 0.00 0.15 0.07 75 1011.5
20260903115822 66 248 11.0 24.0 0.00 0.15 0.07 74 1011.4
20260903115322 66 266 14.0 24.0 0.00 0.15 0.07 74 1011.3
20260903114820 67 238 15.0 24.0 0.00 0.15 0.07 73 1011.3
20260903114549 67 255 11.0 23.0 0.00 0.15 0.07 75 1011.4
20260903113820 67 275 13.0 26.0 0.00 0.15 0.07 75 1011.3
20260903113538 67 259 12.0 26.0 0.00 0.15 0.07 74 1011.3
20260903112820 67 298 13.0 24.0 0.00 0.15 0.07 74 1011.2
20260903112538 67 257 12.0 24.0 0.00 0.15 0.07 75 1011.1
20260903111817 67 295 12.0 24.0 0.00 0.15 0.07 76 1011.2
20260903111315 66 319 12.0 21.0 0.00 0.15 0.07 78 1011.2
20260903110815 65 278 13.0 20.0 0.00 0.15 0.07 78 1011.1
20260903110316 66 288 11.0 20.0 0.00 0.15 0.07 79 1011.0
20260903105813 66 250 12.0 20.0 0.00 0.15 0.07 79 1010.9
20260903105313 66 272 12.0 21.0 0.00 0.15 0.07 79 1010.9
20260903104814 66 251 15.0 27.0 0.00 0.15 0.07 79 1011.0
20260903104312 66 247 15.0 27.0 0.00 0.15 0.07 79 1011.1
20260903104046 65 240 10.0 24.0 0.00 0.15 0.07 81 1010.9
20260903103309 64 241 12.0 24.0 0.00 0.15 0.07 82 1011.0
20260903102810 65 289 14.0 19.0 0.00 0.15 0.07 81 1010.8
20260903102308 65 264 13.0 19.0 0.00 0.15 0.07 83 1010.8
20260903101809 65 251 12.0 19.0 0.00 0.15 0.07 83 1010.8
20260903101309 65 238 9.0 18.0 0.00 0.15 0.07 85 1010.7
20260903100807 64 258 10.0 22.0 0.00 0.15 0.07 86 1010.8
20260903100307 64 262 13.0 26.0 0.00 0.15 0.07 85 1010.8
20260903095808 64 245 13.0 26.0 0.00 0.15 0.07 85 1010.8
20260903095533 64 259 11.0 21.0 0.00 0.15 0.07 87 1010.8
20260903094805 63 254 11.0 20.0 0.01 0.15 0.07 88 1010.7
20260903094304 63 245 11.0 20.0 0.02 0.15 0.07 88 1010.7
20260903094037 63 283 10.0 21.0 0.03 0.15 0.07 89 1010.7
20260903093305 63 274 10.0 21.0 0.04 0.15 0.07 90 1010.7
20260903092805 63 288 9.0 18.0 0.04 0.15 0.07 92 1010.7
20260903092306 61 288 8.0 19.0 0.04 0.15 0.07 92 1010.7
20260903091804 61 248 12.0 19.0 0.04 0.15 0.07 92 1010.7
20260903091305 61 283 8.0 12.0 0.04 0.15 0.07 93 1010.5
20260903090803 61 259 5.0 11.0 0.04 0.15 0.07 93 1010.5
20260903090532 61 235 6.0 11.0 0.04 0.15 0.07 93 1010.4
20260903085804 61 271 6.0 11.0 0.04 0.11 0.07 92 1010.4
20260903085306 61 276 6.0 11.0 0.04 0.11 0.07 92 1010.5
20260903084803 61 257 7.0 10.0 0.03 0.11 0.06 92 1010.5
20260903084303 61 248 7.0 14.0 0.02 0.11 0.04 91 1010.4
20260903083805 61 252 8.0 14.0 0.01 0.11 0.04 91 1010.2
20260903083304 61 245 7.0 12.0 0.00 0.11 0.03 91 1010.2
20260903082804 61 292 9.0 12.0 0.00 0.11 0.03 91 1010.3
20260903082529 61 254 6.0 13.0 0.00 0.11 0.03 91 1010.2
20260903081804 61 250 6.0 14.0 0.00 0.11 0.03 90 1010.3
20260903081303 61 250 7.0 14.0 0.00 0.11 0.03 90 1010.2
20260903080804 61 283 8.0 13.0 0.00 0.11 0.03 90 1010.3
20260903080304 61 286 8.0 13.0 0.00 0.11 0.03 90 1010.3
20260903075804 61 269 7.0 16.0 0.00 0.11 0.03 91 1010.2
20260903075306 61 257 8.0 21.0 0.00 0.11 0.03 91 1010.2
20260903074304 61 244 9.0 18.0 0.01 0.11 0.03 91 1010.1
20260903073804 61 266 9.0 18.0 0.01 0.11 0.03 91 1010.0
20260903073305 61 230 8.0 18.0 0.01 0.11 0.03 92 1010.1
20260903072804 61 231 10.0 16.0 0.01 0.11 0.03 92 1010.1
20260903072306 61 258 8.0 17.0 0.01 0.11 0.03 92 1009.8
20260903071803 61 268 8.0 17.0 0.01 0.11 0.03 92 1009.7
20260903071303 61 258 11.0 16.0 0.01 0.11 0.03 92 1009.7
20260903070805 61 227 7.0 15.0 0.01 0.11 0.03 92 1009.6
20260903070304 61 279 8.0 15.0 0.01 0.11 0.03 92 1009.7
20260903065803 61 269 9.0 14.0 0.01 0.10 0.03 92 1009.6
20260903065306 61 264 6.0 15.0 0.01 0.10 0.03 92 1009.6
20260903064805 61 274 9.0 15.0 0.00 0.10 0.02 91 1009.6
20260903064303 61 282 8.0 13.0 0.00 0.10 0.02 91 1009.6
20260903063803 61 240 8.0 16.0 0.00 0.10 0.02 91 1009.2
20260903063304 61 285 10.0 19.0 0.00 0.10 0.02 91 1009.2
20260903062804 61 293 11.0 19.0 0.00 0.10 0.02 91 1009.3
20260903062306 61 258 11.0 17.0 0.00 0.10 0.02 91 1009.0
20260903061804 61 283 6.0 17.0 0.00 0.10 0.02 91 1009.0
20260903061303 61 245 9.0 17.0 0.00 0.10 0.02 91 1009.0
20260903060804 61 290 9.0 16.0 0.00 0.10 0.02 92 1008.9
20260903060304 61 244 8.0 16.0 0.00 0.10 0.02 92 1008.9
20260903060039 61 254 6.0 19.0 0.00 0.10 0.02 92 1008.8
20260903055306 61 231 10.0 22.0 0.01 0.10 0.02 92 1008.8
20260903054807 61 252 10.0 22.0 0.01 0.10 0.02 92 1008.9
20260903054532 61 293 11.0 18.0 0.01 0.10 0.02 92 1008.8
20260903053803 61 245 10.0 20.0 0.01 0.10 0.02 92 1008.8
20260903053304 61 275 11.0 20.0 0.02 0.10 0.02 92 1008.8
20260903052804 61 285 11.0 17.0 0.02 0.10 0.02 92 1008.8
20260903052307 61 244 9.0 18.0 0.02 0.10 0.02 92 1008.8
20260903051805 61 245 11.0 18.0 0.02 0.10 0.02 92 1008.8
20260903051304 61 254 9.0 19.0 0.02 0.10 0.02 91 1008.9
20260903050805 62 251 10.0 19.0 0.02 0.10 0.02 91 1008.8
20260903050319 62 241 13.0 20.0 0.02 0.10 0.02 91 1008.7
20260903050043 62 262 13.0 20.0 0.02 0.09 0.02 91 1008.8
20260903045306 62 231 9.0 14.0 0.01 0.09 0.02 91 1008.8
20260903044803 62 259 7.0 18.0 0.01 0.09 0.02 91 1009.0
20260903044303 62 275 10.0 18.0 0.01 0.09 0.02 91 1009.0
20260903043803 62 248 9.0 17.0 0.01 0.09 0.02 91 1009.0
20260903043306 62 286 10.0 16.0 0.00 0.09 0.01 91 1008.8
20260903042804 62 243 9.0 20.0 0.00 0.09 0.01 91 1008.7
20260903042306 62 261 12.0 20.0 0.00 0.09 0.01 90 1008.7
20260903041803 62 258 11.0 19.0 0.00 0.09 0.01 91 1008.6
20260903041030 63 276 10.0 18.0 0.00 0.09 0.01 91 1008.6
20260903040312 63 309 10.0 19.0 0.00 0.09 0.01 92 1008.7
20260903035809 63 238 11.0 19.0 0.00 0.09 0.01 92 1008.6
20260903034804 63 265 10.0 18.0 0.00 0.09 0.01 92 1008.7
20260903034304 63 247 11.0 18.0 0.00 0.09 0.01 93 1008.4
20260903033805 63 248 7.0 17.0 0.00 0.09 0.01 93 1008.4
20260903033305 63 237 10.0 17.0 0.00 0.09 0.01 93 1008.3
20260903032803 63 247 7.0 14.0 0.00 0.09 0.01 93 1008.5
20260903032305 63 240 7.0 14.0 0.00 0.09 0.01 93 1008.2
20260903031807 63 262 8.0 12.0 0.00 0.09 0.01 93 1008.3
20260903031304 63 252 7.0 14.0 0.00 0.09 0.01 93 1008.3
20260903030803 63 276 7.0 18.0 0.00 0.09 0.01 93 1008.4
20260903030303 63 269 7.0 18.0 0.00 0.09 0.01 93 1008.4
20260903025804 63 275 9.0 17.0 0.00 0.09 0.01 93 1008.4
20260903025522 63 241 9.0 16.0 0.00 0.09 0.01 92 1008.4
20260903024803 63 248 9.0 16.0 0.00 0.09 0.01 92 1008.3
20260903024303 63 258 8.0 17.0 0.00 0.09 0.01 92 1008.2
20260903024026 63 261 9.0 17.0 0.00 0.09 0.01 92 1008.2
20260903023304 63 240 10.0 18.0 0.00 0.09 0.01 92 1008.2
20260903023027 63 251 11.0 21.0 0.00 0.09 0.01 92 1008.1
20260903022306 63 275 12.0 21.0 0.00 0.09 0.01 92 1008.2
20260903021805 63 266 8.0 18.0 0.00 0.09 0.01 93 1008.1
20260903021304 63 241 10.0 15.0 0.00 0.09 0.01 93 1008.3
20260903020803 63 233 9.0 15.0 0.00 0.09 0.01 93 1008.5
20260903020304 63 268 7.0 14.0 0.00 0.09 0.01 93 1008.5
20260903015803 63 230 10.0 14.0 0.00 0.09 0.01 94 1008.6
20260903015306 63 259 9.0 14.0 0.00 0.09 0.01 94 1008.5
20260903015039 63 241 8.0 14.0 0.00 0.09 0.01 94 1008.5
20260903014304 63 258 5.0 12.0 0.00 0.09 0.01 94 1008.4
20260903013803 63 243 6.0 11.0 0.00 0.09 0.01 94 1008.5
20260903013305 63 234 5.0 11.0 0.00 0.09 0.01 94 1008.4
20260903012804 63 237 6.0 14.0 0.00 0.09 0.01 94 1008.5
20260903012306 63 221 7.0 14.0 0.00 0.09 0.01 94 1008.5
20260903011804 63 228 4.0 10.0 0.00 0.09 0.01 94 1008.4
20260903011523 63 214 5.0 14.0 0.00 0.09 0.01 94 1008.5
20260903010804 63 252 6.0 14.0 0.00 0.09 0.01 94 1008.5
20260903010305 63 243 7.0 12.0 0.00 0.09 0.01 94 1008.4
20260903010044 63 245 6.0 12.0 0.00 0.09 0.01 94 1008.4
20260903005306 63 245 4.0 6.0 0.00 0.09 0.01 94 1008.6
20260903004805 63 237 3.0 9.0 0.00 0.09 0.01 94 1008.6
20260903004534 63 224 5.0 10.0 0.00 0.09 0.01 94 1008.6
20260903003804 63 227 4.0 10.0 0.00 0.09 0.01 94 1008.6
20260903003303 63 241 4.0 10.0 0.00 0.09 0.01 94 1008.5
20260903003028 63 228 3.0 7.0 0.00 0.09 0.01 94 1008.9
20260903002306 63 255 5.0 7.0 0.00 0.09 0.01 94 1008.8
20260903001803 63 221 5.0 7.0 0.00 0.09 0.01 94 1008.9
20260903001304 63 233 4.0 6.0 0.01 0.09 0.01 94 1009.1
20260903000803 63 230 4.0 6.0 0.01 0.09 0.01 94 1009.0
20260903000308 63 233 5.0 10.0 0.01 0.09 0.01 94 1009.0
20260902235804 63 230 4.0 13.0 0.01 0.08 0.01 95 1009.0
20260902235305 63 262 5.0 13.0 0.01 0.08 0.01 95 1009.0
20260902234804 63 243 5.0 13.0 0.01 0.08 0.01 95 1008.9
20260902234303 63 271 6.0 13.0 0.01 0.08 0.01 95 1009.0
20260902233802 62 231 7.0 13.0 0.01 0.08 0.01 95 1009.0
20260902233302 62 268 6.0 16.0 0.01 0.08 0.01 95 1009.2
20260902232804 62 243 8.0 16.0 0.01 0.08 0.01 95 1009.0
20260902232306 62 227 8.0 12.0 0.01 0.08 0.01 95 1009.0
20260902232021 62 244 7.0 16.0 0.01 0.08 0.01 95 1009.1
20260902231257 62 238 9.0 16.0 0.00 0.08 0.00 95 1009.0
20260902230757 62 233 6.0 13.0 0.00 0.08 0.00 95 1009.0
20260902230255 62 214 7.0 13.0 0.00 0.08 0.00 95 1009.1
20260902225755 62 228 8.0 17.0 0.00 0.08 0.08 95 1009.0
20260902225256 62 193 9.0 17.0 0.00 0.08 0.08 95 1008.8
20260902224753 62 224 8.0 16.0 0.00 0.08 0.08 95 1008.7
20260902224254 62 226 7.0 19.0 0.00 0.08 0.08 95 1008.7
20260902223754 62 248 11.0 19.0 0.00 0.08 0.08 95 1008.8
20260902223257 62 202 9.0 15.0 0.00 0.08 0.08 95 1008.9
20260902222752 62 216 5.0 12.0 0.00 0.08 0.08 95 1009.0